Regional Weather Roundup
Issued by NWS

Home | Current Version | Previous Version | Text Only | Print | Product List | Glossary Off
Versions: 1 2 3 4 5 6 7 8 9 10 11 12 13 14 15 16 17 18 19 20 21 22 23 24 25 26 27 28 29 30 31 32 33 34 35 36 37 38 39 40 41 42 43 44 45 46 47 48 49 50

000
ASUS43 KBIS 200302
RWRND

NORTH DAKOTA REGIONAL WEATHER ROUNDUP
NATIONAL WEATHER SERVICE BISMARCK ND
1000 PM CDT WED JUL 19 2017

NOTE: "FAIR" INDICATES FEW OR NO CLOUDS BELOW 12,000 FEET WITH NO
SIGNIFICANT WEATHER AND/OR OBSTRUCTIONS TO VISIBILITY.


NDZ001>003-009>011-017-200400-
NORTHWEST NORTH DAKOTA

CITY           SKY/WX    TMP DP  RH WIND       PRES   REMARKS
WILLISTON      CLEAR     81  52  36 NE12      29.92R
MINOT          CLEAR     71  61  70 N3        29.93R
$$

NDZ018>021-031>035-040>046-200400-
SOUTHWEST NORTH DAKOTA

CITY           SKY/WX    TMP DP  RH WIND       PRES   REMARKS
BISMARCK       CLEAR     72  65  78 SE6       29.95R
DICKINSON      CLEAR     71  60  68 S8        29.97R
GARRISON         N/A     77  58  51 NE7       29.93R
HETTINGER ARPT CLEAR     71  57  61 E3        30.02R
$$

NDZ004>008-012>016-024-026-027-054-200400-
NORTHEAST NORTH DAKOTA

CITY           SKY/WX    TMP DP  RH WIND       PRES   REMARKS
GRAND FORKS    CLEAR     73  66  78 NW7       29.87R
GRND FRKS AFB  CLEAR     70  64  82 N7        29.89R
DEVILS LAKE    CLEAR     69  65  86 N6        29.93R
$$

NDZ022-023-025-028>030-036>039-047>053-200400-
SOUTHEAST NORTH DAKOTA

CITY           SKY/WX    TMP DP  RH WIND       PRES   REMARKS
FARGO          CLEAR     74  67  78 S9        29.90R
JAMESTOWN      CLEAR     72  64  76 S5        29.93R
$$





USA.gov is the U.S. government's official web portal to all federal, state and local government web resources and services.